Year,Month,Day,Hour,Minute,Value (Times are PST for temperature in C)
2011,08,30,00,00,14.90
2011,08,30,00,01,15.00
2011,08,30,00,02,15.00
2011,08,30,00,03,15.00
2011,08,30,00,04,15.00
2011,08,30,00,05,15.00
2011,08,30,00,06,15.00
2011,08,30,00,07,15.00
2011,08,30,00,08,15.00
2011,08,30,00,09,15.00
2011,08,30,00,10,15.00
2011,08,30,00,11,15.00
2011,08,30,00,12,15.00
2011,08,30,00,13,15.00
2011,08,30,00,14,15.00
2011,08,30,00,15,15.00
2011,08,30,00,16,15.00
2011,08,30,00,17,15.10
2011,08,30,00,18,15.10
2011,08,30,00,19,15.10
2011,08,30,00,20,15.10
2011,08,30,00,21,15.10
2011,08,30,00,22,15.10
2011,08,30,00,23,15.10
2011,08,30,00,24,15.10
2011,08,30,00,25,15.10
2011,08,30,00,26,15.10
2011,08,30,00,27,15.20
2011,08,30,00,28,15.10
2011,08,30,00,29,15.10
2011,08,30,00,30,15.20
2011,08,30,00,31,15.10
2011,08,30,00,32,15.10
2011,08,30,00,33,15.10
2011,08,30,00,34,15.10
2011,08,30,00,35,15.10
2011,08,30,00,36,15.10
2011,08,30,00,37,15.10
2011,08,30,00,38,15.20
2011,08,30,00,39,15.20
2011,08,30,00,40,15.20
2011,08,30,00,41,15.20
2011,08,30,00,42,15.20
2011,08,30,00,43,15.20
2011,08,30,00,44,15.20
2011,08,30,00,45,15.20
2011,08,30,00,46,15.20
2011,08,30,00,47,15.20
2011,08,30,00,48,15.20
2011,08,30,00,49,15.20
2011,08,30,00,50,15.20
2011,08,30,00,51,15.20
2011,08,30,00,52,15.20
2011,08,30,00,53,15.20
2011,08,30,00,54,15.20
2011,08,30,00,55,15.20
2011,08,30,00,56,15.20
2011,08,30,00,57,15.20
2011,08,30,00,58,15.20
2011,08,30,00,59,15.20
2011,08,30,01,00,15.20
2011,08,30,01,01,15.20
2011,08,30,01,02,15.20
2011,08,30,01,03,15.20
2011,08,30,01,04,15.20
2011,08,30,01,05,15.30
2011,08,30,01,06,15.30
2011,08,30,01,07,15.30
2011,08,30,01,08,15.30
2011,08,30,01,09,15.30
2011,08,30,01,10,15.30
2011,08,30,01,11,15.30
2011,08,30,01,12,15.30
2011,08,30,01,13,15.30
2011,08,30,01,14,15.40
2011,08,30,01,15,15.40
2011,08,30,01,16,15.40
2011,08,30,01,17,15.40
2011,08,30,01,18,15.40
2011,08,30,01,19,15.40
2011,08,30,01,20,15.40
2011,08,30,01,21,15.40
2011,08,30,01,22,15.40
2011,08,30,01,23,15.40
2011,08,30,01,24,15.40
2011,08,30,01,25,15.40
2011,08,30,01,26,15.40
2011,08,30,01,27,15.40
2011,08,30,01,28,15.40
2011,08,30,01,29,15.40
2011,08,30,01,30,15.40
2011,08,30,01,31,15.40
2011,08,30,01,32,15.40
2011,08,30,01,33,15.40
2011,08,30,01,34,15.40
2011,08,30,01,35,15.50
2011,08,30,01,36,15.50
2011,08,30,01,37,15.50
2011,08,30,01,38,15.60
2011,08,30,01,39,15.60
2011,08,30,01,40,15.60
2011,08,30,01,41,15.60
2011,08,30,01,42,15.60
2011,08,30,01,43,15.60
2011,08,30,01,44,15.60
2011,08,30,01,45,15.70
2011,08,30,01,46,15.70
2011,08,30,01,47,15.70
2011,08,30,01,48,15.70
2011,08,30,01,49,15.70
2011,08,30,01,50,15.70
2011,08,30,01,51,15.70
2011,08,30,01,52,15.70
2011,08,30,01,53,15.80
2011,08,30,01,54,15.80
2011,08,30,01,55,15.80
2011,08,30,01,56,15.80
2011,08,30,01,57,15.80
2011,08,30,01,58,15.80
2011,08,30,01,59,15.80
2011,08,30,02,00,15.80
2011,08,30,02,01,15.80
2011,08,30,02,02,15.80
2011,08,30,02,03,15.80
2011,08,30,02,04,15.80
2011,08,30,02,05,15.80
2011,08,30,02,06,15.80
2011,08,30,02,07,15.80
2011,08,30,02,08,15.80
2011,08,30,02,09,15.80
2011,08,30,02,10,15.80
2011,08,30,02,11,15.80
2011,08,30,02,12,15.80
2011,08,30,02,13,15.80
2011,08,30,02,14,15.80
2011,08,30,02,15,15.80
2011,08,30,02,16,15.80
2011,08,30,02,17,15.80
2011,08,30,02,18,15.80
2011,08,30,02,19,15.80
2011,08,30,02,20,15.80
2011,08,30,02,21,15.80
2011,08,30,02,22,15.80
2011,08,30,02,23,15.80
2011,08,30,02,24,15.80
2011,08,30,02,25,15.80
2011,08,30,02,26,15.80
2011,08,30,02,27,15.80
2011,08,30,02,28,15.80
2011,08,30,02,29,15.80
2011,08,30,02,30,15.80
2011,08,30,02,31,15.90
2011,08,30,02,32,15.90
2011,08,30,02,33,15.90
2011,08,30,02,34,15.90
2011,08,30,02,35,15.90
2011,08,30,02,36,15.90
2011,08,30,02,37,16.00
2011,08,30,02,38,16.00
2011,08,30,02,39,16.00
2011,08,30,02,40,16.00
2011,08,30,02,41,16.00
2011,08,30,02,42,16.00
2011,08,30,02,43,16.00
2011,08,30,02,44,16.00
2011,08,30,02,45,16.00
2011,08,30,02,46,16.00
2011,08,30,02,47,16.00
2011,08,30,02,48,16.00
2011,08,30,02,49,16.00
2011,08,30,02,50,15.90
2011,08,30,02,51,15.90
2011,08,30,02,52,15.90
2011,08,30,02,53,15.90
2011,08,30,02,54,15.90
2011,08,30,02,55,15.90
2011,08,30,02,56,15.90
2011,08,30,02,57,15.90
2011,08,30,02,58,15.90
2011,08,30,02,59,15.90
2011,08,30,03,00,15.90
2011,08,30,03,01,15.90
2011,08,30,03,02,15.80
2011,08,30,03,03,15.80
2011,08,30,03,04,15.80
2011,08,30,03,05,15.80
2011,08,30,03,06,15.80
2011,08,30,03,07,15.80
2011,08,30,03,08,15.80
2011,08,30,03,09,15.80
2011,08,30,03,10,15.80
2011,08,30,03,11,15.80
2011,08,30,03,12,15.70
2011,08,30,03,13,15.70
2011,08,30,03,14,15.70
2011,08,30,03,15,15.60
2011,08,30,03,16,15.60
2011,08,30,03,17,15.50
2011,08,30,03,18,15.50
2011,08,30,03,19,15.40
2011,08,30,03,20,15.30
2011,08,30,03,21,15.30
2011,08,30,03,22,15.20
2011,08,30,03,23,15.00
2011,08,30,03,24,15.00
2011,08,30,03,25,15.00
2011,08,30,03,26,15.00
2011,08,30,03,27,15.00
2011,08,30,03,28,15.00
2011,08,30,03,29,15.00
2011,08,30,03,30,14.90
2011,08,30,03,31,14.90
2011,08,30,03,32,14.80
2011,08,30,03,33,14.80
2011,08,30,03,34,14.80
2011,08,30,03,35,14.80
2011,08,30,03,36,14.70
2011,08,30,03,37,14.70
2011,08,30,03,38,14.70
2011,08,30,03,39,14.60
2011,08,30,03,40,14.60
2011,08,30,03,41,14.60
2011,08,30,03,42,14.60
2011,08,30,03,43,14.50
2011,08,30,03,44,14.50
2011,08,30,03,45,14.50
2011,08,30,03,46,14.40
2011,08,30,03,47,14.40
2011,08,30,03,48,14.40
2011,08,30,03,49,14.40
2011,08,30,03,50,14.40
2011,08,30,03,51,14.40
2011,08,30,03,52,14.40
2011,08,30,03,53,14.30
2011,08,30,03,54,14.30
2011,08,30,03,55,14.30
2011,08,30,03,56,14.30
2011,08,30,03,57,14.30
2011,08,30,03,58,14.30
2011,08,30,03,59,14.30
2011,08,30,04,00,14.30
2011,08,30,04,01,14.20
2011,08,30,04,02,14.20
2011,08,30,04,03,14.20
2011,08,30,04,04,14.20
2011,08,30,04,05,14.10
2011,08,30,04,06,14.10
2011,08,30,04,07,14.10
2011,08,30,04,08,14.00
2011,08,30,04,09,14.00
2011,08,30,04,10,14.00
2011,08,30,04,11,13.90
2011,08,30,04,12,13.90
2011,08,30,04,13,13.90
2011,08,30,04,14,13.90
2011,08,30,04,15,13.80
2011,08,30,04,16,13.80
2011,08,30,04,17,13.80
2011,08,30,04,18,13.80
2011,08,30,04,19,13.80
2011,08,30,04,20,13.80
2011,08,30,04,21,13.80
2011,08,30,04,22,13.80
2011,08,30,04,23,13.70
2011,08,30,04,24,13.70
2011,08,30,04,25,13.70
2011,08,30,04,26,13.70
2011,08,30,04,27,13.70
2011,08,30,04,28,13.70
2011,08,30,04,29,13.80
2011,08,30,04,30,13.80
2011,08,30,04,31,13.80
2011,08,30,04,32,13.80
2011,08,30,04,33,13.80
2011,08,30,04,34,13.80
2011,08,30,04,35,13.80
2011,08,30,04,36,13.80
2011,08,30,04,37,13.80
2011,08,30,04,38,13.80
2011,08,30,04,39,13.80
2011,08,30,04,40,13.80
2011,08,30,04,41,13.80
2011,08,30,04,42,13.80
2011,08,30,04,43,13.80
2011,08,30,04,44,13.90
2011,08,30,04,45,13.80
2011,08,30,04,46,13.80
2011,08,30,04,47,13.80
2011,08,30,04,48,13.80
2011,08,30,04,49,13.80
2011,08,30,04,50,13.80
2011,08,30,04,51,13.80
2011,08,30,04,52,13.80
2011,08,30,04,53,13.80
2011,08,30,04,54,13.80
2011,08,30,04,55,13.80
2011,08,30,04,56,13.80
2011,08,30,04,57,13.80
2011,08,30,04,58,13.80
2011,08,30,04,59,13.80
2011,08,30,05,00,13.80
2011,08,30,05,01,13.80
2011,08,30,05,02,13.70
2011,08,30,05,03,13.70
2011,08,30,05,04,13.70
2011,08,30,05,05,13.70
2011,08,30,05,06,13.70
2011,08,30,05,07,13.70
2011,08,30,05,08,13.70
2011,08,30,05,09,13.70
2011,08,30,05,10,13.70
2011,08,30,05,11,13.70
2011,08,30,05,12,13.70
2011,08,30,05,13,13.70
2011,08,30,05,14,13.70
2011,08,30,05,15,13.70
2011,08,30,05,16,13.70
2011,08,30,05,17,13.70
2011,08,30,05,18,13.70
2011,08,30,05,19,13.70
2011,08,30,05,20,13.70
2011,08,30,05,21,13.70
2011,08,30,05,22,13.70
2011,08,30,05,23,13.70
2011,08,30,05,24,13.70
2011,08,30,05,25,13.70
2011,08,30,05,26,13.70
2011,08,30,05,27,13.70
2011,08,30,05,28,13.80
2011,08,30,05,29,13.80
2011,08,30,05,30,13.80
2011,08,30,05,31,13.80
2011,08,30,05,32,13.80
2011,08,30,05,33,13.80
2011,08,30,05,34,13.80
2011,08,30,05,35,13.80
2011,08,30,05,36,13.80
2011,08,30,05,37,13.70
2011,08,30,05,38,13.70
2011,08,30,05,39,13.70
2011,08,30,05,40,13.70
2011,08,30,05,41,13.70
2011,08,30,05,42,13.60
2011,08,30,05,43,13.60
2011,08,30,05,44,13.60
2011,08,30,05,45,13.60
2011,08,30,05,46,13.60
2011,08,30,05,47,13.60
2011,08,30,05,48,13.60
2011,08,30,05,49,13.60
2011,08,30,05,50,13.50
2011,08,30,05,51,13.50
2011,08,30,05,52,13.40
2011,08,30,05,53,13.40
2011,08,30,05,54,13.30
2011,08,30,05,55,13.30
2011,08,30,05,56,13.30
2011,08,30,05,57,13.30
2011,08,30,05,58,13.30
2011,08,30,05,59,13.20
2011,08,30,06,00,13.20
2011,08,30,06,01,13.20
2011,08,30,06,02,13.20
2011,08,30,06,03,13.20
2011,08,30,06,04,13.20
2011,08,30,06,05,13.20
2011,08,30,06,06,13.10
2011,08,30,06,07,13.10
2011,08,30,06,08,13.10
2011,08,30,06,09,13.00
2011,08,30,06,10,13.00
2011,08,30,06,11,12.90
2011,08,30,06,12,12.90
2011,08,30,06,13,12.90
2011,08,30,06,14,12.80
2011,08,30,06,15,12.80
2011,08,30,06,16,12.80
2011,08,30,06,17,12.70
2011,08,30,06,18,12.70
2011,08,30,06,19,12.70
2011,08,30,06,20,12.70
2011,08,30,06,21,12.70
2011,08,30,06,22,12.70
2011,08,30,06,23,12.70
2011,08,30,06,24,12.70
2011,08,30,06,25,12.70
2011,08,30,06,26,12.70
2011,08,30,06,27,12.70
2011,08,30,06,28,12.70
2011,08,30,06,29,12.70
2011,08,30,06,30,12.80
2011,08,30,06,31,12.80
2011,08,30,06,32,12.80
2011,08,30,06,33,12.80
2011,08,30,06,34,12.80
2011,08,30,06,35,12.80
2011,08,30,06,36,12.80
2011,08,30,06,37,12.80
2011,08,30,06,38,12.80
2011,08,30,06,39,12.80
2011,08,30,06,40,12.80
2011,08,30,06,41,12.80
2011,08,30,06,42,12.80
2011,08,30,06,43,12.70
2011,08,30,06,44,12.70
2011,08,30,06,45,12.70
2011,08,30,06,46,12.70
2011,08,30,06,47,12.80
2011,08,30,06,48,12.80
2011,08,30,06,49,12.80
2011,08,30,06,50,12.80
2011,08,30,06,51,12.80
2011,08,30,06,52,12.80
2011,08,30,06,53,12.80
2011,08,30,06,54,12.90
2011,08,30,06,55,12.90
2011,08,30,06,56,13.00
2011,08,30,06,57,13.00
2011,08,30,06,58,13.10
2011,08,30,06,59,13.10
2011,08,30,07,00,13.10
2011,08,30,07,01,13.10
2011,08,30,07,02,13.10
2011,08,30,07,03,13.10
2011,08,30,07,04,13.10
2011,08,30,07,05,13.10
2011,08,30,07,06,13.10
2011,08,30,07,07,13.10
2011,08,30,07,08,13.10
2011,08,30,07,09,13.10
2011,08,30,07,10,13.10
2011,08,30,07,11,13.10
2011,08,30,07,12,13.10
2011,08,30,07,13,13.10
2011,08,30,07,14,13.10
2011,08,30,07,15,13.10
2011,08,30,07,16,13.10
2011,08,30,07,17,13.10
2011,08,30,07,18,13.10
2011,08,30,07,19,13.10
2011,08,30,07,20,13.10
2011,08,30,07,21,13.10
2011,08,30,07,22,13.10
2011,08,30,07,23,13.10
2011,08,30,07,24,13.10
2011,08,30,07,25,13.10
2011,08,30,07,26,13.10
2011,08,30,07,27,13.10
2011,08,30,07,28,13.10
2011,08,30,07,29,13.20
2011,08,30,07,30,13.20
2011,08,30,07,31,13.20
2011,08,30,07,32,13.20
2011,08,30,07,33,13.20
2011,08,30,07,34,13.20
2011,08,30,07,35,13.20
2011,08,30,07,36,13.30
2011,08,30,07,37,13.30
2011,08,30,07,38,13.30
2011,08,30,07,39,13.30
2011,08,30,07,40,13.30
2011,08,30,07,41,13.30
2011,08,30,07,42,13.30
2011,08,30,07,43,13.40
2011,08,30,07,54,13.60
2011,08,30,07,55,13.60
2011,08,30,07,56,13.60
2011,08,30,07,57,13.60
2011,08,30,07,58,13.70
2011,08,30,07,59,13.70
2011,08,30,08,00,13.70
2011,08,30,08,01,13.80
2011,08,30,08,02,13.80
2011,08,30,08,03,13.80
2011,08,30,08,04,13.80
2011,08,30,08,05,13.90
2011,08,30,08,06,13.90
2011,08,30,08,07,13.90
2011,08,30,08,08,14.00
2011,08,30,08,09,14.00
2011,08,30,08,10,14.00
2011,08,30,08,11,14.10
2011,08,30,08,12,14.10
2011,08,30,08,13,14.10
2011,08,30,08,14,14.20
2011,08,30,08,15,14.20
2011,08,30,08,16,14.20
2011,08,30,08,17,14.30
2011,08,30,08,18,14.30
2011,08,30,08,19,14.30
2011,08,30,08,20,14.40
2011,08,30,08,21,14.40
2011,08,30,08,22,14.40
2011,08,30,08,23,14.40
2011,08,30,08,24,14.40
2011,08,30,08,25,14.40
2011,08,30,08,26,14.40
2011,08,30,08,27,14.40
2011,08,30,08,28,14.40
2011,08,30,08,29,14.40
2011,08,30,08,30,14.40
2011,08,30,08,31,14.40
2011,08,30,08,32,14.50
2011,08,30,08,33,14.50
2011,08,30,08,34,14.50
2011,08,30,08,35,14.50
2011,08,30,08,36,14.60
2011,08,30,08,37,14.60
2011,08,30,08,38,14.60
2011,08,30,08,39,14.70
2011,08,30,08,40,14.70
2011,08,30,08,41,14.70
2011,08,30,08,42,14.70
2011,08,30,08,43,14.70
2011,08,30,08,44,14.80
2011,08,30,08,45,14.80
2011,08,30,08,46,14.80
2011,08,30,08,47,14.90
2011,08,30,08,48,14.90
2011,08,30,08,49,15.00
2011,08,30,08,50,15.00
2011,08,30,08,51,15.00
2011,08,30,08,52,15.00
2011,08,30,08,53,15.00
2011,08,30,08,54,15.00
2011,08,30,08,55,15.00
2011,08,30,08,56,15.00
2011,08,30,08,57,15.00
2011,08,30,08,58,15.10
2011,08,30,08,59,15.10
2011,08,30,09,00,15.20
2011,08,30,09,01,15.20
2011,08,30,09,02,15.30
2011,08,30,09,03,15.30
2011,08,30,09,04,15.30
2011,08,30,09,05,15.40
2011,08,30,09,06,15.40
2011,08,30,09,07,15.40
2011,08,30,09,08,15.40
2011,08,30,09,09,15.40
2011,08,30,09,10,15.50
2011,08,30,09,11,15.50
2011,08,30,09,12,15.50
2011,08,30,09,13,15.50
2011,08,30,09,14,15.50
2011,08,30,09,15,15.50
2011,08,30,09,16,15.50
2011,08,30,09,17,15.50
2011,08,30,09,18,15.40
2011,08,30,09,19,15.40
2011,08,30,09,20,15.40
2011,08,30,09,21,15.40
2011,08,30,09,22,15.40
2011,08,30,09,23,15.40
2011,08,30,09,24,15.40
2011,08,30,09,25,15.40
2011,08,30,09,26,15.40
2011,08,30,09,27,15.40
2011,08,30,09,28,15.40
2011,08,30,09,29,15.50
2011,08,30,09,30,15.50
2011,08,30,09,31,15.50
2011,08,30,09,32,15.60
2011,08,30,09,33,15.60
2011,08,30,09,34,15.70
2011,08,30,09,35,15.70
2011,08,30,09,36,15.80
2011,08,30,09,37,15.90
2011,08,30,09,38,15.90
2011,08,30,09,39,16.00
2011,08,30,09,40,16.00
2011,08,30,09,41,16.10
2011,08,30,09,42,16.10
2011,08,30,09,43,16.20
2011,08,30,09,44,16.30
2011,08,30,09,45,16.30
2011,08,30,09,46,16.50
2011,08,30,09,47,16.60
2011,08,30,09,48,16.70
2011,08,30,09,49,16.80
2011,08,30,09,50,16.80
2011,08,30,09,51,16.80
2011,08,30,09,52,16.80
2011,08,30,09,53,16.80
2011,08,30,09,54,16.80
2011,08,30,09,55,16.80
2011,08,30,09,56,16.80
2011,08,30,09,57,16.90
2011,08,30,09,58,16.90
2011,08,30,09,59,17.00
2011,08,30,10,00,17.10
2011,08,30,10,01,17.20
2011,08,30,10,02,17.30
2011,08,30,10,03,17.40
2011,08,30,10,04,17.50
2011,08,30,10,05,17.60
2011,08,30,10,06,17.70
2011,08,30,10,07,17.70
2011,08,30,10,08,17.70
2011,08,30,10,09,17.70
2011,08,30,10,10,17.70
2011,08,30,10,11,17.70
2011,08,30,10,12,17.70
2011,08,30,10,13,17.70
2011,08,30,10,14,17.80
2011,08,30,10,15,17.80
2011,08,30,10,16,17.70
2011,08,30,10,17,17.70
2011,08,30,10,18,17.70
2011,08,30,10,19,17.70
2011,08,30,10,20,17.60
2011,08,30,10,21,17.50
2011,08,30,10,22,17.50
2011,08,30,10,23,17.60
2011,08,30,10,24,17.70
2011,08,30,10,25,17.70
2011,08,30,10,26,17.60
2011,08,30,10,27,17.60
2011,08,30,10,28,17.60
2011,08,30,10,29,17.60
2011,08,30,10,30,17.60
2011,08,30,10,31,17.60
2011,08,30,10,32,17.50
2011,08,30,10,33,17.50
2011,08,30,10,34,17.60
2011,08,30,10,35,17.70
2011,08,30,10,36,17.70
2011,08,30,10,37,17.80
2011,08,30,10,38,17.80
2011,08,30,10,39,17.80
2011,08,30,10,40,17.80
2011,08,30,10,41,17.80
2011,08,30,10,42,17.80
2011,08,30,10,43,17.70
2011,08,30,10,44,17.70
2011,08,30,10,45,17.60
2011,08,30,10,46,17.60
2011,08,30,10,47,17.40
2011,08,30,10,48,17.40
2011,08,30,10,49,17.40
2011,08,30,10,50,17.30
2011,08,30,10,51,17.30
2011,08,30,10,52,17.30
2011,08,30,10,53,17.30
2011,08,30,10,54,17.20
2011,08,30,10,55,17.20
2011,08,30,10,56,17.20
2011,08,30,10,57,17.20
2011,08,30,10,58,17.20
2011,08,30,10,59,17.20
2011,08,30,11,00,17.20
2011,08,30,11,01,17.20
2011,08,30,11,02,17.20
2011,08,30,11,03,17.30
2011,08,30,11,04,17.30
2011,08,30,11,05,17.30
2011,08,30,11,06,17.30
2011,08,30,11,07,17.30
2011,08,30,11,08,17.40
2011,08,30,11,09,17.40
2011,08,30,11,10,17.40
2011,08,30,11,11,17.50
2011,08,30,11,12,17.50
2011,08,30,11,13,17.60
2011,08,30,11,14,17.70
2011,08,30,11,15,17.70
2011,08,30,11,16,17.70
2011,08,30,11,17,17.70
2011,08,30,11,18,17.70
2011,08,30,11,19,17.70
2011,08,30,11,20,17.70
2011,08,30,11,21,17.80
2011,08,30,11,22,17.70
2011,08,30,11,23,17.70
2011,08,30,11,24,17.60
2011,08,30,11,25,17.60
2011,08,30,11,26,17.60
2011,08,30,11,27,17.60
2011,08,30,11,28,17.70
2011,08,30,11,29,17.70
2011,08,30,11,30,17.70
2011,08,30,11,31,17.70
2011,08,30,11,32,17.80
2011,08,30,11,33,17.80
2011,08,30,11,34,17.90
2011,08,30,11,35,17.90
2011,08,30,11,36,17.90
2011,08,30,11,37,17.90
2011,08,30,11,38,17.80
2011,08,30,11,39,17.80
2011,08,30,11,40,17.80
2011,08,30,11,41,17.80
2011,08,30,11,42,17.80
2011,08,30,11,43,17.70
2011,08,30,11,44,17.70
2011,08,30,11,45,17.60
2011,08,30,11,46,17.60
2011,08,30,11,47,17.50
2011,08,30,11,48,17.50
2011,08,30,11,49,17.50
2011,08,30,11,50,17.60
2011,08,30,11,51,17.70
2011,08,30,11,52,17.70
2011,08,30,11,53,17.70
2011,08,30,11,54,17.80
2011,08,30,11,55,17.80
2011,08,30,11,56,17.80
2011,08,30,11,57,17.90
2011,08,30,11,58,17.90
2011,08,30,11,59,18.00
2011,08,30,12,00,18.00
2011,08,30,12,01,18.10
2011,08,30,12,02,18.20
2011,08,30,12,03,18.20
2011,08,30,12,04,18.20
2011,08,30,12,05,18.30
2011,08,30,12,06,18.30
2011,08,30,12,07,18.30
2011,08,30,12,08,18.30
2011,08,30,12,09,18.30
2011,08,30,12,10,18.30
2011,08,30,12,11,18.30
2011,08,30,12,12,18.40
2011,08,30,12,13,18.60
2011,08,30,12,14,18.70
2011,08,30,12,15,18.70
2011,08,30,12,16,18.60
2011,08,30,12,17,18.70
2011,08,30,12,18,18.60
2011,08,30,12,19,18.50
2011,08,30,12,20,18.40
2011,08,30,12,21,18.20
2011,08,30,12,22,18.10
2011,08,30,12,23,18.00
2011,08,30,12,24,17.90
2011,08,30,12,25,17.80
2011,08,30,12,26,17.80
2011,08,30,12,27,17.80
2011,08,30,12,28,17.90
2011,08,30,12,29,17.90
2011,08,30,12,30,18.00
2011,08,30,12,31,18.00
2011,08,30,12,32,18.00
2011,08,30,12,33,17.90
2011,08,30,12,34,17.90
2011,08,30,12,35,17.90
2011,08,30,12,36,18.00
2011,08,30,12,37,18.10
2011,08,30,12,38,18.20
2011,08,30,12,39,18.20
2011,08,30,12,40,18.30
2011,08,30,12,41,18.40
2011,08,30,12,42,18.50
2011,08,30,12,43,18.50
2011,08,30,12,44,18.50
2011,08,30,12,45,18.50
2011,08,30,12,46,18.50
2011,08,30,12,47,18.50
2011,08,30,12,48,18.60
2011,08,30,12,49,18.60
2011,08,30,12,50,18.50
2011,08,30,12,51,18.50
2011,08,30,12,52,18.40
2011,08,30,12,53,18.50
2011,08,30,12,54,18.50
2011,08,30,12,55,18.70
2011,08,30,12,56,18.70
2011,08,30,12,57,18.60
2011,08,30,12,58,18.60
2011,08,30,12,59,18.50
2011,08,30,13,00,18.40
2011,08,30,13,01,18.30
2011,08,30,13,02,18.20
2011,08,30,13,03,18.10
2011,08,30,13,04,18.20
2011,08,30,13,05,18.20
2011,08,30,13,06,18.10
2011,08,30,13,07,18.10
2011,08,30,13,08,18.20
2011,08,30,13,09,18.20
2011,08,30,13,10,18.30
2011,08,30,13,11,18.30
2011,08,30,13,12,18.30
2011,08,30,13,13,18.30
2011,08,30,13,14,18.20
2011,08,30,13,15,18.20
2011,08,30,13,16,18.20
2011,08,30,13,17,18.20
2011,08,30,13,18,18.30
2011,08,30,13,19,18.30
2011,08,30,13,20,18.20
2011,08,30,13,21,18.30
2011,08,30,13,22,18.30
2011,08,30,13,23,18.30
2011,08,30,13,24,18.30
2011,08,30,13,25,18.30
2011,08,30,13,26,18.30
2011,08,30,13,27,18.30
2011,08,30,13,28,18.30
2011,08,30,13,29,18.30
2011,08,30,13,30,18.30
2011,08,30,13,31,18.20
2011,08,30,13,32,18.20
2011,08,30,13,33,18.20
2011,08,30,13,34,18.20
2011,08,30,13,35,18.20
2011,08,30,13,36,18.30
2011,08,30,13,37,18.30
2011,08,30,13,38,18.40
2011,08,30,13,39,18.40
2011,08,30,13,40,18.40
2011,08,30,13,41,18.30
2011,08,30,13,42,18.30
2011,08,30,13,43,18.30
2011,08,30,13,44,18.30
2011,08,30,13,45,18.30
2011,08,30,13,46,18.30
2011,08,30,13,47,18.20
2011,08,30,13,48,18.10
2011,08,30,13,49,18.20
2011,08,30,13,50,18.20
2011,08,30,13,51,18.20
2011,08,30,13,52,18.20
2011,08,30,13,53,18.30
2011,08,30,13,54,18.30
2011,08,30,13,55,18.30
2011,08,30,13,56,18.30
2011,08,30,13,57,18.30
2011,08,30,13,58,18.30
2011,08,30,13,59,18.40
2011,08,30,14,00,18.40
2011,08,30,14,01,18.30
2011,08,30,14,02,18.30
2011,08,30,14,03,18.40
2011,08,30,14,04,18.40
2011,08,30,14,05,18.40
2011,08,30,14,06,18.50
2011,08,30,14,07,18.50
2011,08,30,14,08,18.50
2011,08,30,14,09,18.60
2011,08,30,14,10,18.70
2011,08,30,14,11,18.80
2011,08,30,14,12,18.80
2011,08,30,14,13,18.80
2011,08,30,14,14,18.70
2011,08,30,14,15,18.70
2011,08,30,14,16,18.70
2011,08,30,14,17,18.70
2011,08,30,14,18,18.70
2011,08,30,14,19,18.70
2011,08,30,14,20,18.60
2011,08,30,14,21,18.60
2011,08,30,14,22,18.50
2011,08,30,14,23,18.40
2011,08,30,14,24,18.30
2011,08,30,14,25,18.30
2011,08,30,14,26,18.30
2011,08,30,14,27,18.20
2011,08,30,14,28,18.10
2011,08,30,14,29,18.00
2011,08,30,14,30,17.90
2011,08,30,14,31,17.80
2011,08,30,14,32,17.70
2011,08,30,14,33,17.70
2011,08,30,14,34,17.60
2011,08,30,14,35,17.70
2011,08,30,14,36,17.70
2011,08,30,14,37,17.80
2011,08,30,14,38,17.80
2011,08,30,14,39,17.90
2011,08,30,14,40,17.80
2011,08,30,14,41,17.80
2011,08,30,14,42,17.90
2011,08,30,14,43,17.90
2011,08,30,14,44,17.90
2011,08,30,14,45,18.00
2011,08,30,14,46,18.10
2011,08,30,14,47,18.00
2011,08,30,14,48,18.10
2011,08,30,14,49,18.10
2011,08,30,14,50,18.20
2011,08,30,14,51,18.30
2011,08,30,14,52,18.40
2011,08,30,14,53,18.60
2011,08,30,14,54,18.70
2011,08,30,14,55,18.80
2011,08,30,14,56,18.90
2011,08,30,14,57,19.00
2011,08,30,14,58,19.10
2011,08,30,14,59,19.10
2011,08,30,15,00,19.00
2011,08,30,15,01,18.90
2011,08,30,15,02,19.00
2011,08,30,15,03,18.90
2011,08,30,15,04,18.80
2011,08,30,15,05,18.90
2011,08,30,15,06,18.90
2011,08,30,15,07,19.00
2011,08,30,15,08,19.10
2011,08,30,15,09,19.20
2011,08,30,15,10,19.20
2011,08,30,15,11,19.20
2011,08,30,15,12,19.30
2011,08,30,15,13,19.30
2011,08,30,15,14,19.30
2011,08,30,15,15,19.30
2011,08,30,15,16,19.40
2011,08,30,15,17,19.40
2011,08,30,15,18,19.40
2011,08,30,15,19,19.40
2011,08,30,15,20,19.50
2011,08,30,15,21,19.50
2011,08,30,15,22,19.60
2011,08,30,15,23,19.60
2011,08,30,15,24,19.60
2011,08,30,15,25,19.70
2011,08,30,15,26,19.70
2011,08,30,15,27,19.70
2011,08,30,15,28,19.70
2011,08,30,15,29,19.70
2011,08,30,15,30,19.80
2011,08,30,15,31,19.80
2011,08,30,15,32,19.80
2011,08,30,15,33,19.90
2011,08,30,15,34,19.90
2011,08,30,15,35,19.90
2011,08,30,15,36,19.90
2011,08,30,15,37,19.90
2011,08,30,15,38,19.90
2011,08,30,15,39,20.00
2011,08,30,15,40,20.10
2011,08,30,15,41,20.20
2011,08,30,15,42,20.20
2011,08,30,15,43,20.30
2011,08,30,15,44,20.30
2011,08,30,15,45,20.30
2011,08,30,15,46,20.30
2011,08,30,15,47,20.30
2011,08,30,15,48,20.20
2011,08,30,15,49,20.00
2011,08,30,15,50,19.90
2011,08,30,15,51,19.80
2011,08,30,15,52,19.70
2011,08,30,15,53,19.70
2011,08,30,15,54,19.80
2011,08,30,15,55,19.80
2011,08,30,15,56,19.90
2011,08,30,15,57,19.90
2011,08,30,15,58,20.00
2011,08,30,15,59,20.00
2011,08,30,16,00,20.10
2011,08,30,16,01,20.10
2011,08,30,16,02,20.30
2011,08,30,16,03,20.30
2011,08,30,16,04,20.30
2011,08,30,16,05,20.30
2011,08,30,16,06,20.10
2011,08,30,16,07,20.00
2011,08,30,16,08,19.80
2011,08,30,16,09,19.70
2011,08,30,16,10,19.50
2011,08,30,16,11,19.30
2011,08,30,16,12,19.20
2011,08,30,16,13,19.20
2011,08,30,16,14,19.20
2011,08,30,16,15,19.30
2011,08,30,16,16,19.50
2011,08,30,16,17,19.60
2011,08,30,16,18,19.70
2011,08,30,16,19,19.80
2011,08,30,16,20,19.80
2011,08,30,16,21,19.80
2011,08,30,16,22,19.90
2011,08,30,16,23,20.00
2011,08,30,16,24,20.10
2011,08,30,16,25,20.10
2011,08,30,16,26,20.20
2011,08,30,16,27,20.10
2011,08,30,16,28,20.10
2011,08,30,16,29,20.10
2011,08,30,16,30,20.20
2011,08,30,16,31,20.10
2011,08,30,16,32,20.10
2011,08,30,16,33,20.10
2011,08,30,16,34,20.20
2011,08,30,16,35,20.30
2011,08,30,16,36,20.40
2011,08,30,16,37,20.50
2011,08,30,16,38,20.60
2011,08,30,16,39,20.70
2011,08,30,16,40,20.60
2011,08,30,16,41,20.60
2011,08,30,16,42,20.50
2011,08,30,16,43,20.50
2011,08,30,16,44,20.60
2011,08,30,16,45,20.60
2011,08,30,16,46,20.60
2011,08,30,16,47,20.60
2011,08,30,16,48,20.60
2011,08,30,16,49,20.60
2011,08,30,16,50,20.60
2011,08,30,16,51,20.60
2011,08,30,16,52,20.60
2011,08,30,16,53,20.60
2011,08,30,16,54,20.50
2011,08,30,16,55,20.50
2011,08,30,16,56,20.50
2011,08,30,16,57,20.60
2011,08,30,16,58,20.60
2011,08,30,16,59,20.70
2011,08,30,17,00,20.80
2011,08,30,17,01,20.80
2011,08,30,17,02,20.90
2011,08,30,17,03,20.90
2011,08,30,17,04,20.80
2011,08,30,17,05,20.80
2011,08,30,17,06,20.70
2011,08,30,17,07,20.50
2011,08,30,17,08,20.50
2011,08,30,17,09,20.50
2011,08,30,17,10,20.50
2011,08,30,17,11,20.60
2011,08,30,17,12,20.60
2011,08,30,17,13,20.70
2011,08,30,17,14,20.70
2011,08,30,17,15,20.70
2011,08,30,17,16,20.70
2011,08,30,17,17,20.70
2011,08,30,17,18,20.70
2011,08,30,17,19,20.80
2011,08,30,17,20,20.80
2011,08,30,17,21,20.80
2011,08,30,17,22,20.70
2011,08,30,17,23,20.60
2011,08,30,17,24,20.60
2011,08,30,17,25,20.60
2011,08,30,17,26,20.50
2011,08,30,17,27,20.50
2011,08,30,17,28,20.50
2011,08,30,17,29,20.50